Location: Unspecified
(0.0000°N, 0.0000°E)
Time: 21:35:08
(UTC+00:00)

CZ-3C DEB (VEB) - Pass Details

Date: 11 March 2026
Orbit: 224 x 25513 km, 21.0° (Epoch: 10 April)

Event Time Altitude Azimuth Distance (km) Brightness Sun altitude
Rises 03:13:15 0° 293° (WNW) 14,741 ? -44.1°
Enters shadow 03:20:42 - 294° (WNW) 15,672 ? -42.2°
Exits shadow 03:48:02 21° 295° (WNW) 19,171 ? -35.4°
Maximum altitude 09:26:03 47° 211° (SSW) 5,706 ? 48.9°
Drops below altitude 10° 09:39:32 10° 137° (SE) 4,074 ? 52.2°
Sets 09:41:32 0° 129° (SE) 4,415 ? 52.7°
